Wind_Speed
45 43 42 39 38 36 35 33 32 30 29 28 27 26 25 24 24 23 23 23 22 23 23 23 24 24 25 26 27 29 30 31 32 34 35 36 37 38 39 40 41 42 43
47 45 43 41 39 38 37 35 34 32 31 30 29 28 27 26 25 25 25 24 24 24 25 25 26 26 27 28 29 30 31 33 34 35 36 38 39 39 40 41 43 44 45
49 47 45 43 41 39 38 37 35 33 32 31 30 29 28 27 27 27 26 26 26 26 27 27 27 28 29 30 31 32 33 34 35 37 38 39 40 41 42 43 44 45 46
49 47 46 44 43 41 40 38 36 35 34 32 31 31 30 29 28 28 27 27 27 28 28 28 29 30 30 31 32 33 34 35 37 38 39 40 41 42 43 44 45 46 48
51 48 47 45 44 42 41 39 37 36 35 33 32 32 31 30 30 29 28 28 29 29 29 30 31 31 32 33 34 35 36 37 38 39 40 41 42 44 45 46 47 48 49
52 50 48 47 45 43 42 40 38 37 36 34 33 32 32 31 30 30 29 30 30 30 31 31 32 33 33 34 35 36 37 38 39 40 42 43 44 45 46 47 48 49 50
54 51 49 48 46 45 43 41 39 38 36 35 34 33 32 31 31 31 31 31 31 31 32 32 33 34 35 35 36 37 38 40 40 42 43 43 44 45 47 48 49 50 51
55 52 51 50 48 46 44 42 40 39 37 36 35 34 33 32 32 32 32 32 32 33 33 33 34 35 36 36 37 38 40 41 42 43 43 44 45 46 48 49 49 51 52
56 53 51 50 49 47 45 43 42 40 38 37 36 35 34 33 33 33 33 33 33 33 34 34 35 35 37 38 39 39 40 42 43 43 44 45 46 47 48 49 50 52 53
57 55 53 51 49 48 46 44 42 41 40 38 37 36 35 34 34 34 34 34 34 34 34 35 36 36 37 38 39 40 41 42 43 44 44 45 46 48 49 50 51 53 54
56 55 53 51 50 48 46 45 43 42 40 39 38 37 36 35 35 35 34 34 34 34 35 36 36 37 38 39 40 41 41 42 43 44 45 46 47 48 49 50 52 54 54
56 55 53 51 49 48 47 45 44 43 42 41 40 39 37 36 36 35 35 34 34 35 35 35 37 37 38 39 40 41 42 42 43 44 45 46 47 49 50 51 53 54 55
56 53 52 51 49 48 47 46 44 43 42 41 40 39 38 37 37 36 35 35 35 35 35 35 37 37 38 39 40 41 42 42 43 44 45 47 48 49 50 52 53 54 56
54 51 49 50 50 49 47 45 44 43 42 41 40 39 38 37 36 36 35 35 35 35 35 36 37 37 38 40 41 41 42 43 43 44 46 47 48 49 50 52 54 55 57
53 52 50 49 48 48 46 45 43 43 42 42 41 40 38 37 36 35 35 35 35 35 35 36 36 37 38 40 40 41 42 43 44 45 46 47 48 50 51 53 54 56 58
50 50 49 48 48 47 47 45 44 42 42 41 40 39 38 37 36 36 36 36 36 35 36 36 36 37 39 40 40 41 41 42 43 44 46 48 49 50 52 54 56 57 59
51 51 50 48 46 45 45 44 43 42 41 40 39 38 38 37 36 35 35 35 35 35 35 36 37 38 39 40 40 40 41 42 43 45 47 48 50 51 52 55 57 59 61
50 49 49 47 45 44 43 43 42 42 41 40 39 37 36 36 35 34 34 34 35 36 36 36 37 38 39 39 39 40 41 43 45 46 47 49 50 51 53 56 58 60 62
50 49 48 47 45 43 42 42 41 40 40 40 38 36 36 35 34 34 34 35 35 36 36 36 37 38 39 39 40 41 42 43 45 46 48 49 50 52 55 58 59 61 62
51 48 47 46 44 43 42 40 39 40 39 39 38 37 36 35 35 35 35 35 36 36 36 37 37 38 39 39 40 41 42 43 44 46 48 49 51 54 56 58 60 61 62
51 49 47 46 44 43 42 41 39 39 39 39 38 37 36 36 35 35 35 36 36 36 36 37 37 38 39 39 40 41 42 43 45 46 48 50 52 55 57 58 60 61 61
51 50 48 45 44 43 42 41 40 40 39 38 37 37 36 36 36 36 35 35 36 36 36 36 37 38 39 40 40 41 42 44 45 46 49 51 53 55 57 58 60 59 59
50 48 46 44 44 43 42 41 40 39 38 38 37 37 36 36 36 35 35 36 36 36 36 36 37 37 38 39 40 41 43 44 45 47 49 51 53 55 57 58 58 58 59
51 48 46 43 42 41 41 40 40 39 38 37 36 36 35 35 35 34 35 34 34 35 35 36 36 37 37 38 40 41 42 44 46 48 49 51 53 55 56 57 57 57 57
51 49 47 44 42 40 39 38 39 38 38 38 37 36 35 35 34 34 34 34 35 35 35 35 35 36 37 38 40 41 42 44 46 48 50 51 53 53 54 54 55 55 56
50 49 48 44 42 41 39 39 38 38 38 38 37 37 36 35 35 35 34 34 34 33 33 33 35 36 36 38 39 40 42 44 46 48 49 51 52 52 51 51 53 53 53
Wind_Direction
235 235 235 236 238 239 241 243 246 248 250 253 256 258 262 265 268 272 275 277 282 285 289 292 294 296 298 301 304 306 308 310 312 313 315 316 317 318 318 319 320 320 320
234 235 235 236 238 239 241 243 245 247 250 253 256 259 262 264 267 271 274 277 281 284 287 291 293 295 297 300 303 305 306 308 310 312 314 315 316 317 317 318 319 319 320
233 234 234 235 237 239 241 242 244 247 250 252 256 259 261 264 267 270 273 276 280 283 286 290 292 294 297 300 302 305 306 307 309 311 313 314 315 316 317 317 318 318 319
232 232 234 235 237 239 241 242 244 247 249 252 255 258 261 264 267 270 273 276 279 283 285 289 292 294 296 299 302 304 305 307 309 310 312 313 314 315 316 316 317 318 319
232 233 234 234 236 239 241 243 245 247 249 252 255 258 260 263 266 270 273 276 279 282 285 288 291 294 296 299 301 303 305 306 308 309 311 312 313 314 315 316 317 317 318
232 232 233 234 236 238 241 242 244 246 249 252 255 257 260 263 266 270 274 276 279 282 285 287 291 293 296 299 301 302 304 306 308 309 310 311 312 313 314 315 316 317 318
230 232 234 234 236 238 241 243 244 246 249 252 254 257 260 263 267 271 274 277 279 282 285 287 290 292 295 298 300 301 303 305 307 308 309 310 311 312 313 314 315 317 318
230 232 233 234 236 238 240 242 244 246 249 251 254 257 260 263 266 270 274 277 279 282 285 287 289 292 295 297 299 301 303 304 306 307 309 310 311 312 313 314 315 317 318
229 231 233 234 236 238 240 242 243 245 248 251 254 257 260 263 266 270 274 277 279 281 284 287 289 292 294 296 299 301 303 304 306 307 309 310 311 312 313 314 315 317 318
229 231 233 235 236 237 239 241 243 245 248 250 254 257 260 263 267 271 274 277 279 281 284 287 289 292 294 296 299 302 303 304 306 307 308 309 311 312 313 314 316 317 318
229 231 232 233 234 236 239 240 242 244 247 250 253 257 260 263 267 271 274 277 279 282 285 287 289 292 295 297 299 301 303 304 306 307 308 309 311 312 313 314 316 317 317
229 230 231 233 234 236 238 241 242 244 247 250 253 257 260 263 267 271 274 277 280 283 286 287 290 292 295 297 300 302 303 305 306 307 308 310 311 312 313 315 316 317 317
227 229 231 232 234 236 238 241 243 244 247 250 253 257 260 263 266 270 273 276 280 283 286 288 291 293 295 298 300 302 304 305 306 307 309 310 311 313 314 315 316 316 317
225 228 231 233 235 235 237 241 243 244 247 250 252 256 259 262 266 269 272 276 280 283 286 289 291 293 296 298 300 303 304 306 307 308 309 311 312 313 314 315 316 317 317
224 228 232 233 234 235 237 240 243 245 247 249 252 255 258 261 265 268 272 276 280 283 286 289 292 295 297 299 301 303 305 306 307 309 310 311 313 314 315 316 316 317 317
224 227 230 232 234 235 238 239 242 245 247 249 252 254 257 260 263 267 272 276 280 283 287 289 291 294 297 299 301 303 305 306 308 309 311 312 313 314 315 316 317 317 317
227 228 230 232 235 236 238 239 242 245 247 248 252 254 257 259 263 268 272 276 280 284 287 289 292 294 297 300 302 304 305 307 309 310 311 312 314 314 315 316 317 318 318
224 226 229 231 234 236 238 240 242 245 246 248 250 254 257 260 263 268 271 275 280 283 286 289 292 295 299 301 303 304 306 308 309 311 312 313 314 315 316 317 318 318 318
224 227 229 231 234 236 237 239 242 245 247 247 249 252 256 260 263 268 271 275 279 283 286 290 293 296 298 301 303 305 307 309 310 311 312 313 315 316 317 318 318 319 319
225 227 228 230 233 235 237 239 241 244 246 248 249 251 256 260 264 268 271 275 279 283 286 290 293 296 298 301 303 306 308 309 311 312 313 314 316 317 318 319 319 319 320
226 228 229 232 234 235 237 239 242 244 246 248 249 252 256 260 264 268 272 275 279 282 286 289 293 296 299 301 304 306 307 309 311 312 314 315 317 318 319 319 319 320 321
226 228 230 233 235 235 236 239 241 244 246 247 250 252 256 260 264 268 273 276 279 283 286 289 293 296 299 302 304 306 308 310 311 313 314 316 317 318 319 319 320 321 322
225 227 228 232 234 236 236 238 239 242 244 247 250 253 258 262 266 269 273 277 281 283 287 290 294 297 300 302 304 307 309 311 312 314 315 317 318 319 319 320 321 322 323
226 226 227 229 231 233 235 237 238 240 244 247 251 255 260 263 268 271 275 278 281 285 288 291 294 296 299 302 305 307 309 311 313 315 316 318 318 319 320 321 322 323 324
224 226 228 229 231 233 236 236 238 241 243 247 252 257 260 264 268 271 275 278 281 285 288 291 295 298 300 303 306 308 310 312 314 315 317 318 319 320 322 322 323 324 325
223 224 227 229 231 233 235 236 239 241 244 248 252 257 261 264 267 271 274 277 280 284 287 291 295 298 301 303 306 308 311 312 314 315 317 318 319 321 323 324 324 325 326
Height
5805 5809 5813 5817 5821 5825 5828 5830 5833 5835 5837 5839 5840 5841 5842 5843 5843 5843 5843 5842 5842 5841 5840 5838 5837 5835 5833 5831 5829 5826 5823 5820 5817 5813 5809 5805 5800 5796 5791 5786 5781 5776 5771
5796 5801 5806 5811 5815 5818 5822 5825 5827 5830 5832 5834 5835 5837 5838 5838 5839 5839 5839 5838 5837 5837 5835 5834 5833 5831 5829 5826 5824 5821 5818 5815 5811 5807 5803 5799 5794 5790 5785 5780 5774 5769 5763
5788 5793 5799 5803 5808 5812 5815 5818 5821 5824 5826 5828 5830 5831 5832 5833 5834 5834 5834 5833 5833 5832 5831 5829 5828 5826 5824 5821 5819 5816 5813 5809 5805 5801 5797 5792 5788 5783 5778 5773 5767 5761 5756
5779 5785 5791 5796 5800 5805 5808 5812 5815 5818 5820 5822 5824 5826 5827 5828 5829 5829 5829 5828 5828 5827 5826 5824 5823 5821 5818 5816 5813 5810 5807 5803 5799 5795 5791 5786 5781 5776 5771 5765 5760 5754 5748
5770 5776 5782 5788 5793 5797 5801 5805 5809 5811 5814 5816 5818 5820 5821 5822 5823 5823 5823 5823 5822 5821 5820 5819 5817 5815 5813 5810 5807 5804 5801 5797 5793 5788 5784 5779 5774 5769 5763 5758 5752 5746 5739
5761 5768 5774 5780 5785 5790 5794 5798 5802 5805 5807 5810 5812 5814 5815 5816 5817 5817 5818 5817 5817 5816 5814 5813 5811 5809 5806 5804 5801 5798 5794 5790 5786 5782 5777 5772 5767 5761 5756 5750 5744 5737 5731
5752 5760 5766 5772 5777 5782 5786 5790 5794 5798 5801 5803 5806 5807 5809 5810 5811 5811 5811 5811 5810 5809 5808 5807 5805 5803 5800 5797 5794 5791 5787 5783 5779 5774 5770 5765 5759 5754 5748 5742 5736 5729 5723
5743 5750 5757 5763 5769 5774 5778 5783 5787 5791 5794 5797 5799 5801 5802 5804 5804 5805 5805 5805 5804 5803 5802 5800 5798 5796 5794 5791 5787 5784 5780 5776 5772 5767 5762 5757 5751 5746 5740 5734 5727 5721 5714
5734 5741 5747 5754 5760 5765 5770 5775 5779 5783 5787 5790 5792 5794 5796 5797 5798 5799 5798 5798 5797 5796 5795 5793 5791 5789 5787 5784 5780 5777 5773 5768 5764 5759 5754 5749 5743 5738 5731 5725 5718 5712 5704
5725 5732 5738 5745 5751 5757 5762 5767 5771 5776 5779 5782 5785 5787 5789 5791 5792 5792 5792 5791 5790 5789 5788 5786 5784 5782 5780 5777 5773 5769 5765 5761 5756 5751 5746 5741 5735 5729 5723 5716 5710 5702 5695
5714 5722 5728 5735 5742 5748 5753 5758 5763 5768 5771 5775 5777 5779 5781 5783 5784 5785 5785 5784 5783 5782 5781 5779 5777 5775 5772 5769 5766 5762 5757 5753 5748 5743 5738 5732 5727 5720 5714 5707 5700 5693 5686
5704 5713 5720 5727 5734 5740 5745 5750 5755 5759 5763 5767 5769 5772 5774 5775 5776 5777 5777 5777 5776 5775 5773 5772 5770 5767 5765 5761 5758 5754 5749 5745 5740 5735 5730 5724 5718 5712 5705 5698 5691 5684 5676
5695 5704 5711 5718 5725 5731 5737 5742 5747 5751 5755 5758 5761 5764 5766 5767 5768 5769 5770 5769 5769 5768 5766 5764 5762 5760 5757 5754 5750 5746 5741 5737 5732 5727 5721 5716 5710 5703 5696 5689 5682 5674 5666
5687 5695 5702 5709 5716 5723 5728 5734 5739 5743 5747 5750 5753 5756 5758 5759 5760 5761 5762 5762 5761 5761 5759 5757 5754 5752 5749 5746 5742 5738 5733 5729 5724 5718 5713 5707 5701 5694 5687 5680 5672 5664 5656
5677 5686 5694 5700 5707 5714 5719 5725 5730 5735 5738 5742 5745 5747 5750 5751 5752 5753 5754 5754 5754 5753 5752 5749 5747 5744 5741 5738 5734 5730 5725 5721 5715 5710 5704 5698 5692 5685 5678 5671 5663 5654 5645
5669 5677 5685 5692 5698 5705 5711 5716 5722 5726 5730 5734 5736 5739 5741 5743 5744 5745 5746 5746 5745 5745 5744 5742 5739 5737 5733 5730 5726 5722 5717 5712 5707 5702 5696 5690 5683 5676 5669 5661 5653 5644 5635
5661 5669 5676 5683 5689 5696 5702 5708 5713 5717 5721 5725 5728 5731 5733 5735 5736 5737 5738 5738 5737 5736 5735 5734 5731 5728 5725 5722 5718 5714 5709 5704 5699 5693 5687 5681 5674 5667 5659 5651 5642 5633 5624
5653 5660 5668 5675 5681 5687 5693 5699 5704 5709 5713 5717 5720 5722 5725 5727 5728 5729 5730 5730 5729 5728 5727 5726 5723 5720 5717 5714 5710 5706 5701 5696 5690 5684 5678 5672 5665 5657 5649 5641 5632 5622 5613
5644 5652 5659 5667 5673 5679 5684 5690 5695 5700 5704 5708 5711 5714 5717 5719 5720 5721 5722 5722 5721 5720 5719 5718 5716 5713 5709 5706 5702 5698 5693 5688 5682 5676 5669 5663 5656 5648 5639 5631 5621 5612 5601
5636 5644 5651 5658 5664 5670 5676 5681 5687 5691 5696 5699 5703 5706 5708 5711 5712 5713 5713 5714 5713 5712 5711 5710 5708 5705 5702 5698 5694 5690 5685 5679 5674 5667 5660 5654 5646 5638 5630 5621 5612 5601 5591
5627 5635 5642 5649 5656 5662 5668 5673 5678 5683 5687 5691 5695 5698 5700 5702 5703 5705 5705 5705 5705 5704 5703 5701 5699 5696 5693 5690 5686 5682 5677 5671 5666 5659 5652 5645 5638 5629 5620 5610 5600 5590 5580
5618 5627 5634 5641 5647 5653 5659 5665 5670 5675 5679 5683 5687 5689 5692 5694 5695 5696 5697 5697 5697 5696 5695 5693 5691 5688 5685 5682 5678 5673 5668 5664 5658 5653 5644 5636 5628 5619 5610 5600 5590 5580 5570
5610 5618 5625 5632 5639 5645 5651 5656 5661 5666 5671 5675 5678 5681 5684 5686 5687 5688 5689 5689 5689 5688 5687 5685 5683 5680 5677 5673 5670 5665 5660 5654 5649 5643 5635 5627 5618 5609 5599 5590 5580 5570 5560
5601 5609 5616 5624 5631 5637 5642 5647 5652 5657 5662 5667 5670 5673 5675 5677 5679 5680 5680 5681 5680 5679 5678 5677 5675 5672 5669 5665 5661 5657 5651 5646 5640 5633 5626 5619 5610 5600 5590 5580 5570 5560 5550
5592 5600 5608 5615 5622 5628 5634 5639 5644 5649 5654 5658 5662 5665 5667 5669 5671 5672 5672 5672 5672 5671 5670 5668 5666 5663 5660 5657 5652 5648 5643 5638 5632 5624 5617 5609 5601 5592 5582 5571 5561 5551 5541
5584 5591 5599 5606 5613 5619 5625 5631 5636 5641 5646 5650 5654 5657 5659 5661 5662 5663 5664 5664 5664 5663 5662 5660 5658 5655 5652 5648 5644 5640 5635 5629 5622 5616 5608 5600 5591 5583 5575 5565 5554 5544 5534